Flag for China Weather past 2 weeks in Kashgar, Xinjiang, China

Now
70 °F

Passing clouds.


Feels Like: 70 °F
Forecast: 67 / 76 °F
Wind: No wind

Location: Kashi Airport

Current Time: Aug 30, 2015 at 7:43:55 AM

Latest Report: Aug 30, 2015 at 7:00 AM


Visibility: 4 mi

Pressure: 30.01 "Hg (25.81 "Hg at 1298m altitude)

Humidity: 38%

Dew point: 43 °F

Location of KashgarLocation

Historic Weather in Kashgar — Graph

°F

Kashgar temperature yesterday

Maximum temperature yesterday: 86 °F (at 3:00 PM)
Minimum temperature yesterday: 70 °F (at 7:00 AM)
Average temperature yesterday: 78 °F

Past Weeks' High & Low Weather Summary

 TemperatureHumidityPressure
High91 °F (Aug 15, 4:00 PM)68% (Aug 28, 7:00 AM)30.15 "Hg (Aug 28, 7:00 AM)
Low64 °F (Aug 28, 7:00 AM)8% (Aug 26, 9:00 PM)29.65 "Hg (Aug 22, 6:00 PM)
Average80 °F22%29.91 "Hg
* Reported Aug 15 6:00 AM — Aug 30 6:00 AM, Kashgar, Weather by CustomWeather, © 2015

Note: Actual official high and low records may vary slightly from our data, if they occured in-between our weather recording intervals... More about our weather records

Advertising

Kashgar weather history for previous 24 hours

 ConditionsComfort  
Time TempWeatherWind HumidityBarometerVisibility
6:00 AM
Sun, Aug 30
70 °FPassing clouds.3 mph38%30.01 "Hg4 mi
5:00 AM73 °FPassing clouds.8 mph19%30.01 "HgN/A
4:00 AM75 °FPassing clouds.17 mph14%29.95 "HgN/A
3:00 AM75 °FMild.20 mph14%29.98 "HgN/A
2:00 AM77 °FPleasantly warm.24 mph14%29.98 "HgN/A
1:00 AM77 °FPleasantly warm.26 mph14%29.95 "HgN/A
12:00 AM79 °FPassing clouds.22 mph13%29.95 "HgN/A
11:00 PM
Sat, Aug 29
79 °FPassing clouds.22 mph15%29.95 "HgN/A
10:00 PM81 °FPassing clouds.17 mph15%29.92 "HgN/A
9:00 PM84 °FScattered clouds.15 mph13%29.86 "HgN/A
8:00 PM84 °FScattered clouds.8 mph16%29.83 "HgN/A
7:00 PM86 °FPassing clouds.13 mph14%29.83 "HgN/A
6:00 PM86 °FScattered clouds.13 mph12%29.83 "HgN/A
5:00 PM86 °FScattered clouds.8 mph12%29.83 "HgN/A
4:00 PM86 °FPassing clouds.6 mph11%29.86 "HgN/A
3:00 PM86 °FPassing clouds.8 mph11%29.89 "HgN/A
2:00 PM84 °FPassing clouds.13 mph11%29.89 "HgN/A
1:00 PM82 °FPassing clouds.15 mph12%29.92 "HgN/A
12:00 PM79 °FPassing clouds.13 mph16%29.95 "HgN/A
11:00 AM75 °FScattered clouds.20 mph18%29.92 "HgN/A
10:00 AM72 °FScattered clouds.17 mph23%29.92 "HgN/A
9:00 AM70 °FPassing clouds.8 mph23%29.95 "HgN/A
8:00 AM70 °FPassing clouds.8 mph25%29.95 "HgN/A
7:00 AM70 °FPassing clouds.10 mph27%29.95 "HgN/A
Weather by CustomWeather, © 2015

See weather overviewHow to use our weather pages